Regional Weather Roundup
Issued by NWS Cleveland, OH

Home | Current Version | Previous Version | Text Only | Print | Product List | Glossary Off
Versions: 1 2 3 4 5 6 7 8 9 10 11 12 13 14 15 16 17 18 19 20 21 22 23 24 25 26 27 28 29 30 31 32 33 34 35 36 37 38 39 40 41 42 43 44 45 46 47 48 49 50

000
ASUS41 KCLE 040800
RWRCLE
OHIO REGIONAL WEATHER ROUNDUP
NATIONAL WEATHER SERVICE WILMINGTON, OH
400 AM EDT WED MAY 04 2016

NOTE: "FAIR" INDICATES FEW OR NO CLOUDS BELOW 12,000 FEET WITH NO
SIGNIFICANT WEATHER AND/OR OBSTRUCTIONS TO VISIBILITY.

OHZ001>008-015>018-024>027-034-035-043-044-040900-
   NORTHWEST OHIO

CITY           SKY/WX    TMP DP  RH WIND       PRES   REMARKS
DEFIANCE       CLOUDY    53  44  71 S8        29.68F
FINDLAY        CLOUDY    50  42  74 S9        29.70F
TOLEDO EXPRESS MOCLDY    49  44  83 S6        29.68F
TOLEDO EXEC    MOCLDY    50  43  77 SW7       29.70F
LIMA           MOCLDY    48  44  86 S8        29.71F
$$

OHZ009>014-019>023-028>033-038-089-040900-
   NORTHEAST OHIO

CITY           SKY/WX    TMP DP  RH WIND       PRES   REMARKS
CLE-HOPKINS    FAIR      47  39  74 S5        29.74F
CLE-LAKEFRONT  FAIR      49  38  65 S6        29.71F
CUY CO. ARPT   NOT AVBL
LORAIN-ELYRIA  FAIR      44  39  82 SW5       29.72F
ASHTABULA      FAIR      38  37  97 SE3       29.74F
AKRON-CANTON   FAIR      48  40  73 S3        29.74F
WOOSTER        NOT AVBL
MANSFIELD      FAIR      42  40  92 S6        29.73F
YOUNGSTOWN     FAIR      39  36  89 SE3       29.73F
$$

OHZ042-051>053-060>062-070>072-077>081-040900-
  SOUTHWEST OHIO

CITY           SKY/WX    TMP DP  RH WIND       PRES   REMARKS
CINC-COVINGTON FAIR      47  45  93 SW3       29.77F
CINC-LUNKEN    FAIR      48  48 100 S3        29.78F
HAMILTON       FAIR      45  44  97 CALM      29.77F
DAYTON         NOT AVBL
WRIGHT-PAT AFB FAIR      46  46 100 CALM      29.74F
DAYTON GENERAL FAIR      45  42  89 S3        29.75F FOG
WILMINGTON     FAIR      46  45  96 SW7       29.75F FOG
$$

OHZ036-037-039>041-045>050-054>059-063>069-073>076-082>088-040900-
  CENTRAL AND SOUTHEAST OHIO

CITY           SKY/WX    TMP DP  RH WIND       PRES   REMARKS
COLUMBUS       FAIR      46  45  96 CALM      29.74F
OSU AIRPORT    FAIR      44  42  93 SW5       29.74F
BOLTON FIELD   NOT AVBL
RICKENBACK AFB NOT AVBL
NEWARK         MOCLDY    46  44  93 CALM      29.74F FOG
MARION         FAIR      43  40  89 S6        29.73F FOG
LANCASTER      MOCLDY    50  46  86 W3        29.76F
ZANESVILLE     CLOUDY    52  48  86 CALM      29.75F
NEW PHILLY     CLOUDY    49  45  86 CALM      29.74F
$$




USA.gov is the U.S. government's official web portal to all federal, state and local government web resources and services.